STARLINK-4078, 52689

Orbit data source: Space-Track

STARLINK-4078, 52689 is a payload satellite owned by SpaceX/Seattle (US) in LEO that was launched on Wed, 18 May 2022 UTC via an FALCON 9 launch vehicle from the Air Force Eastern Test Range (AFETR). Payload-class satellites include a variety of spacecraft equipped with specific instruments for various scientific and technological missions. These include communications satellites like Starlink; space stations such as the ISS; scientific satellites like the Hubble; Earth observation satellites from companies like Planet Labs, Umbra, and HawkEye 360; GPS; miniature CubeSats for education and research; and military/defense satellites.

Loading next visibility...
Identifier
52689, 2022-053AK
Orbit
LEO
Country
Flag of USUS
Related business
Manufacturer
SpaceX/Seattle
Mission
Partially operational Commercial Communications
Bus & Motor
STARLINK, Unknown motor
Mass
297 kg wet, ~275 kg dry
Launch date (UTC)
2022-05-18 (4 years ago)
Launch vehicle
FALCON 9
Launch site
Air Force Eastern Test Range (AFETR)
Object type
Payload
Rocket body
Debris
Shape & HBR
Box + 1 Pan, 10.1 m
Radar Cross Section
13.562 m², Large (>1 m²)

Expand to show TLE details & history
Last TLE update: 3 days ago

TLE from 3 days ago
0 STARLINK-4078
1 52689U 22053AK  26170.65088266  .00168489  00000-0  11397-2 0  9998
2 52689  53.2063 306.8281 0003641 310.9025  49.1680 15.74024917227956
Epoch: 2026-06-19T15:37Z
TLE epoch observation values (Epoch: 2026-06-19T15:37:16.261Z)
Latitude
-0.00001°
Longitude
164.63353°
Altitude
346.729 km
Speed
7.703 km/s
True Right ascension
20h 27m 18s
True Declination
0° 00' 00"
Sunlit
Object was in full shadow at epoch
Visualization orbit readout
Latitude
Unknown
Longitude
Unknown
Altitude
Unknown
Speed
Unknown
Apparent Right ascension
Unknown
Apparent Declination
Unknown
Sunlit
N/A
Visualization observer readout
Local Sidereal Time
23:07:26
Azimuth
Unknown
Elevation
Unknown
Doppler factor
Unknown
Orbital elements
Apogee altitude
350.11 km
Perigee altitude
345.212 km
Semi-major axis
6,725.798 km
Eccentricity
0.00036
Inclination
53.2063°
RAAN
306.8281°
Arg. of periapsis
310.9025°
True anomaly
49.19958°
Mean anomaly
49.168°
Eccentric anomaly
49.18379°
Mean motion
3.93484 °/min
Orbital period
91.49 mins
BSTAR
0.0011397
Loading maneuver chart data...
Computing Atmospheric mass density...

Documentation

Showing up to 5 results
|